WB9TLH-11 Weather Reports


time (UTC)temp
F
wind
direction
speed
knots
gust
knots
rain 1hr
in
rain 24hr
in
rain mn
in
humidity
%
barometer
mb
20260504040055 58 150 1.7 3.5 0.00 0.00 0.00 48 1012.0
20260504035555 58 150 1.7 7.0 0.00 0.00 0.00 49 1011.9
20260504035055 58 189 1.7 4.3 0.00 0.00 0.00 48 1011.9
20260504034555 58 152 0.9 6.1 0.00 0.00 0.00 49 1012.1
20260504034056 58 232 0.9 4.3 0.00 0.00 0.00 48 1012.1
20260504033555 58 177 1.7 3.5 0.00 0.00 0.00 49 1012.1
20260504033055 58 164 0.9 5.2 0.00 0.00 0.00 48 1012.2
20260504032556 58 160 0.9 2.6 0.00 0.00 0.00 49 1012.2
20260504032055 58 160 0.9 6.1 0.00 0.00 0.00 49 1012.3
20260504031555 58 173 0.9 3.5 0.00 0.00 0.00 48 1012.4
20260504031056 58 162 0.9 4.3 0.00 0.00 0.00 48 1012.4
20260504030555 58 163 1.7 4.3 0.00 0.00 0.00 48 1012.4
20260504030056 58 153 1.7 5.2 0.00 0.00 0.00 48 1012.4
20260504025556 58 142 0.9 6.1 0.00 0.00 0.00 48 1012.4
20260504025056 58 144 0.9 2.6 0.00 0.00 0.00 48 1012.5
20260504024556 58 144 1.7 6.1 0.00 0.00 0.00 48 1012.5
20260504024056 58 148 0.9 3.5 0.00 0.00 0.00 48 1012.5
20260504023556 58 148 0.9 6.1 0.00 0.00 0.00 48 1012.4
20260504023056 58 157 1.7 5.2 0.00 0.00 0.00 48 1012.3
20260504022556 59 142 1.7 6.1 0.00 0.00 0.00 48 1012.3
20260504022056 59 167 1.7 7.0 0.00 0.00 0.00 47 1012.2
20260504021556 59 133 1.7 6.1 0.00 0.00 0.00 47 1012.3
20260504021056 59 194 1.7 7.0 0.00 0.00 0.00 47 1012.3
20260504020556 59 150 1.7 5.2 0.00 0.00 0.00 47 1012.3
20260504020056 59 169 1.7 6.1 0.00 0.00 0.00 47 1012.3
20260504015556 59 146 0.9 6.1 0.00 0.00 0.00 47 1012.3
20260504015056 59 150 0.9 6.1 0.00 0.00 0.00 47 1012.3
20260504014556 59 177 0.9 3.5 0.00 0.00 0.00 46 1012.3
20260504014056 60 181 0.9 4.3 0.00 0.00 0.00 47 1012.3
20260504013556 60 167 1.7 3.5 0.00 0.00 0.00 46 1012.3
20260504013056 60 159 0.9 6.1 0.00 0.00 0.00 46 1012.3
20260504012556 60 150 1.7 7.8 0.00 0.00 0.00 46 1012.3
20260504012056 60 146 1.7 7.8 0.00 0.00 0.00 46 1012.2
20260504011556 60 180 2.6 9.6 0.00 0.00 0.00 45 1012.1
20260504011056 60 140 2.6 7.8 0.00 0.00 0.00 45 1011.8
20260504010556 60 149 2.6 6.1 0.00 0.00 0.00 45 1011.9
20260504010056 60 188 2.6 6.1 0.00 0.00 0.00 45 1012.0
20260504005556 60 156 2.6 6.1 0.00 0.00 0.00 45 1012.0
20260504005056 60 161 1.7 8.7 0.00 0.00 0.00 45 1012.1
20260504004556 60 163 1.7 4.3 0.00 0.00 0.00 45 1012.3
20260504004056 60 168 1.7 6.1 0.00 0.00 0.00 46 1012.4
20260504003556 61 184 0.9 4.3 0.00 0.00 0.00 45 1012.6
20260504003056 61 123 0.9 3.5 0.00 0.00 0.00 44 1012.9
20260504002556 61 123 0.0 1.7 0.00 0.00 0.00 45 1013.2
20260504002056 61 123 0.0 0.0 0.00 0.00 0.00 44 1013.3
20260504001556 61 123 0.0 0.9 0.00 0.00 0.00 43 1013.2
20260504001056 61 123 0.0 2.6 0.00 0.00 0.00 43 1013.2
20260504000556 61 123 0.0 1.7 0.00 0.00 0.00 43 1013.3
20260504000056 61 123 0.0 1.7 0.00 0.00 0.00 43 1013.2
20260503235556 62 123 0.9 3.5 0.00 0.00 0.00 43 1013.2
20260503235056 62 123 0.9 2.6 0.00 0.00 0.00 42 1013.3
20260503234556 62 123 0.0 3.5 0.00 0.00 0.00 42 1013.4
20260503234056 62 123 0.0 0.9 0.00 0.00 0.00 42 1013.6
20260503233556 62 123 0.0 0.9 0.00 0.00 0.00 41 1013.6
20260503233056 62 123 0.0 0.0 0.00 0.00 0.00 44 1013.5
20260503232556 62 123 0.9 0.0 0.00 0.00 0.00 42 1013.5
20260503232056 62 123 1.7 5.2 0.00 0.00 0.00 41 1013.3
20260503231556 62 144 1.7 7.0 0.00 0.00 0.00 40 1012.8
20260503231056 62 173 1.7 6.1 0.00 0.00 0.00 41 1012.8
20260503230556 62 190 0.9 3.5 0.00 0.00 0.00 40 1012.9
20260503230056 62 190 1.7 4.3 0.00 0.00 0.00 41 1013.0
20260503225556 62 184 0.9 9.6 0.00 0.00 0.00 40 1013.1
20260503225056 62 219 1.7 7.8 0.00 0.00 0.00 40 1013.3
20260503224556 62 219 1.7 7.8 0.00 0.00 0.00 40 1013.2
20260503224056 62 208 0.9 4.3 0.00 0.00 0.00 40 1013.3
20260503223556 62 224 0.9 5.2 0.00 0.00 0.00 41 1013.2
20260503223056 62 138 1.7 5.2 0.00 0.00 0.00 41 1013.3
20260503222556 62 160 1.7 7.8 0.00 0.00 0.00 40 1013.3
20260503222056 62 144 0.9 10.4 0.00 0.00 0.00 42 1013.4
20260503221556 62 228 1.7 4.3 0.00 0.00 0.00 41 1013.4
20260503221056 62 175 1.7 7.0 0.00 0.00 0.00 41 1013.2
20260503220556 62 196 2.6 6.1 0.00 0.00 0.00 41 1013.4
20260503220056 62 184 2.6 6.1 0.00 0.00 0.00 40 1013.4
20260503215556 62 205 2.6 6.1 0.00 0.00 0.00 40 1013.3
20260503215056 62 212 2.6 6.1 0.00 0.00 0.00 40 1013.4
20260503214556 62 211 2.6 7.0 0.00 0.00 0.00 41 1013.5
20260503214056 62 157 2.6 5.2 0.00 0.00 0.00 42 1013.4
20260503213556 62 150 2.6 6.1 0.00 0.00 0.00 41 1013.7
20260503213056 61 187 1.7 7.8 0.00 0.00 0.00 41 1014.0
20260503212556 61 144 1.7 7.8 0.00 0.00 0.00 39 1014.0
20260503212056 61 162 1.7 7.0 0.00 0.00 0.00 39 1014.1
20260503211556 62 198 1.7 7.0 0.00 0.00 0.00 40 1014.3
20260503211056 62 173 1.7 8.7 0.00 0.00 0.00 40 1014.2
20260503210556 62 169 1.7 7.8 0.00 0.00 0.00 39 1014.2
20260503210056 62 211 1.7 4.3 0.00 0.00 0.00 40 1014.5
20260503205556 62 194 1.7 8.7 0.00 0.00 0.00 40 1014.8
20260503205056 62 152 1.7 5.2 0.00 0.00 0.00 39 1014.8
20260503204557 62 215 1.7 7.0 0.00 0.00 0.00 39 1015.3
20260503204056 61 201 0.9 6.1 0.00 0.00 0.00 40 1015.4
20260503203556 61 200 0.9 6.1 0.00 0.00 0.00 39 1015.5
20260503203056 61 180 0.9 2.6 0.00 0.00 0.00 39 1015.7
20260503202556 61 236 2.6 3.5 0.00 0.00 0.00 38 1015.9
20260503202056 62 260 1.7 6.1 0.00 0.00 0.00 37 1016.1
20260503201556 62 241 1.7 4.3 0.00 0.00 0.00 38 1016.0
20260503201056 62 195 1.7 7.8 0.00 0.00 0.00 37 1015.8
20260503200556 62 263 2.6 5.2 0.00 0.00 0.00 37 1015.7
20260503200056 62 208 2.6 5.2 0.00 0.00 0.00 37 1015.7
20260503195556 63 238 1.7 6.1 0.00 0.00 0.00 37 1015.7
20260503195056 63 215 1.7 6.1 0.00 0.00 0.00 36 1015.8
20260503194556 62 234 1.7 5.2 0.00 0.00 0.00 38 1015.9
20260503194056 63 208 2.6 5.2 0.00 0.00 0.00 39 1015.8
20260503193556 63 184 2.6 11.3 0.00 0.00 0.00 36 1016.1
20260503193056 63 146 1.7 5.2 0.00 0.00 0.00 38 1016.2
20260503192556 62 144 2.6 7.0 0.00 0.00 0.00 38 1016.3
20260503192056 62 287 1.7 6.1 0.00 0.00 0.00 36 1016.5
20260503191556 63 231 1.7 6.1 0.00 0.00 0.00 37 1016.3
20260503191056 62 213 1.7 6.1 0.00 0.00 0.00 37 1016.4
20260503190556 62 205 2.6 7.8 0.00 0.00 0.00 39 1016.5
20260503190056 62 203 2.6 7.8 0.00 0.00 0.00 37 1016.6
20260503185556 62 140 3.5 13.9 0.00 0.00 0.00 36 1016.8
20260503185056 62 243 2.6 13.0 0.00 0.00 0.00 37 1017.0
20260503184556 62 174 1.7 9.6 0.00 0.00 0.00 42 1017.1
20260503184056 61 251 2.6 5.2 0.00 0.00 0.00 38 1017.0
20260503183556 62 202 1.7 4.3 0.00 0.00 0.00 36 1017.2
20260503183056 62 186 2.6 3.5 0.00 0.00 0.00 38 1017.3
20260503182556 61 141 3.5 10.4 0.00 0.00 0.00 37 1017.5
20260503182057 61 211 1.7 9.6 0.00 0.00 0.00 37 1017.7
20260503181557 61 154 2.6 9.6 0.00 0.00 0.00 38 1017.7
20260503181056 61 215 2.6 7.0 0.00 0.00 0.00 38 1017.9
20260503180557 60 168 2.6 5.2 0.00 0.00 0.00 37 1017.8
20260503180057 60 250 2.6 4.3 0.00 0.00 0.00 40 1018.1
20260503175557 60 236 2.6 4.3 0.00 0.00 0.00 41 1018.3
20260503175057 60 213 1.7 4.3 0.00 0.00 0.00 37 1018.3
20260503174557 60 226 1.7 5.2 0.00 0.00 0.00 37 1018.4
20260503174057 60 213 1.7 4.3 0.00 0.00 0.00 37 1018.6
20260503173557 60 150 1.7 6.1 0.00 0.00 0.00 38 1018.6
20260503173057 60 204 1.7 5.2 0.00 0.00 0.00 38 1018.8
20260503172557 60 234 1.7 3.5 0.00 0.00 0.00 38 1018.6
20260503172057 60 206 1.7 5.2 0.00 0.00 0.00 36 1018.7
20260503171557 60 151 0.9 7.8 0.00 0.00 0.00 42 1018.7
20260503171057 60 188 1.7 2.6 0.00 0.00 0.00 40 1018.7
20260503170557 59 140 1.7 2.6 0.00 0.00 0.00 39 1018.8
20260503150557 54 257 0.9 6.1 0.00 0.00 0.00 41 1020.3
20260503131057 47 200 0.9 3.5 0.00 0.00 0.00 48 1020.6
20260503130557 47 153 0.9 2.6 0.00 0.00 0.00 50 1020.6
20260503110557 41 226 0.0 0.0 0.00 0.00 0.00 54 1019.9
20260503081558 43 227 0.0 0.0 0.00 0.00 0.00 51 1019.6
20260503081058 43 227 0.0 0.0 0.00 0.00 0.00 52 1019.7
20260503080558 43 227 0.0 0.0 0.00 0.00 0.00 51 1019.6
20260503072558 44 227 0.0 0.0 0.00 0.00 0.00 49 1019.6
20260503072058 44 227 0.0 0.0 0.00 0.00 0.00 49 1019.5
20260503071558 44 227 0.0 0.0 0.00 0.00 0.00 48 1019.6
20260503071058 44 227 0.0 0.0 0.00 0.00 0.00 47 1019.7
20260503070558 44 227 0.0 0.0 0.00 0.00 0.00 47 1019.7
20260503055058 45 227 0.0 0.0 0.00 0.00 0.00 43 1020.1
20260503054558 45 227 0.0 0.0 0.00 0.00 0.00 44 1020.1
20260503054058 45 227 0.0 0.0 0.00 0.00 0.00 44 1020.1
20260503053558 44 227 0.0 0.0 0.00 0.00 0.00 46 1020.2
20260503053058 44 227 0.0 0.0 0.00 0.00 0.00 47 1020.2
20260503052558 44 227 0.0 0.0 0.00 0.00 0.00 47 1020.2
20260503052058 44 227 0.0 0.0 0.00 0.00 0.00 48 1020.2
20260503051558 44 227 0.0 0.0 0.00 0.00 0.00 48 1020.2
20260503051058 43 227 0.0 0.0 0.00 0.00 0.00 49 1020.2
20260503050558 43 227 0.0 0.0 0.00 0.00 0.00 49 1020.2
20260503050058 43 227 0.0 0.0 0.00 0.00 0.00 48 1020.2
20260503045558 43 227 0.0 0.0 0.00 0.00 0.00 48 1020.2
20260503045058 43 227 0.0 0.0 0.00 0.00 0.00 48 1020.2
20260503044558 43 227 0.0 0.0 0.00 0.00 0.00 48 1020.2
20260503044058 43 227 0.0 0.0 0.00 0.00 0.00 47 1020.2
20260503043558 43 227 0.0 0.0 0.00 0.00 0.00 47 1020.2
20260503043058 44 227 0.0 0.0 0.00 0.00 0.00 47 1020.1
20260503042558 44 227 0.0 0.0 0.00 0.00 0.00 47 1020.2
20260503042058 44 227 0.0 0.0 0.00 0.00 0.00 47 1020.1
20260503041558 44 227 0.0 0.0 0.00 0.00 0.00 47 1020.1
20260503041058 44 227 0.0 0.0 0.00 0.00 0.00 47 1020.1
20260503040558 44 227 0.0 0.0 0.00 0.00 0.00 47 1020.1